VRMM Airport Information

Runway Information
Runway 18 Length 10499 ft width 148 ft
Elevation 6 ft Threshold 328 ft Heading 179
Runway 36 Length 10499 ft Width 148 ft
Elevation 5 ft Threshold 952 ft Heading 359
Airport Frequencies
Type APP Name APP Frequency 119.7 MHZ
Type GND Name GND Frequency 121.6 MHZ
Type TWR Name TWR Frequency 118.1 MHZ
Airport Navaids
Type NDB Name Male Frequency 252 KHZ
Type VOR-DME Name Male Frequency 114700 KHZ
Airport Weather Information & NOTAM
ADDS - METARS form results

(0008 UTC 23 March 2019)
Data provider http://aviationweather.gov/metar/data/
 
Forecast for: VRMM (MALE INTL/HULULE, MV)
Text: TAF VRMM 222300Z 2300/2406 09007KT 9999 FEW018
Forecast period: 0000 UTC 23 March 2019 to 0600 UTC 24 March 2019
Forecast type: FROM: standard forecast or significant change
Winds: from the E (90 degrees) at 8 MPH (7 knots; 3.6 m/s)
Visibility: 6 or more miles 10+ km)
Ceiling: at least 12,000 feet AGL
Clouds: few clouds at 1800 feet AGL
Weather: no significant weather forecast for this period
Text: TEMPO 2300/2306 FEW018CB
Forecast period: 0000 to 0600 UTC 23 March 2019
Forecast type: TEMPORARY: The following changes expected for less than half the time period
Visibility: missing
Ceiling: at least 12,000 feet AGL
Clouds: few clouds at 1800 feet AGL
Weather: no significant weather forecast for this period